DW8097 Weather Reports


time (UTC)temp
C
wind
direction
speed
KPH
gust
KPH
rain 1hr
cm
rain 24hr
cm
rain mn
cm
humidity
%
barometer
mb
20240418180010 10 272 9.7 20.9 0.00 0.08 0.00 50 1016.7
20240418174507 10 248 9.7 17.7 0.00 0.08 0.00 53 1016.6
20240418173005 10 252 8.0 19.3 0.00 0.08 0.00 53 1016.6
20240418171505 10 275 9.7 24.1 0.00 0.08 0.00 51 1016.4
20240418170003 10 322 11.3 16.1 0.00 0.08 0.00 53 1016.5
20240418164501 10 247 11.3 19.3 0.00 0.08 0.00 55 1016.8
20240418163108 10 290 6.4 14.5 0.00 0.08 0.00 61 1016.8
20240418161559 10 279 4.8 14.5 0.00 0.08 0.00 61 1016.9
20240418160057 9 287 6.4 12.9 0.00 0.08 0.00 63 1016.9
20240418154634 10 285 4.8 17.7 0.00 0.08 0.00 65 1016.9
20240418153055 9 314 6.4 17.7 0.00 0.08 0.00 64 1016.5
20240418151550 9 298 4.8 12.9 0.00 0.08 0.00 72 1016.6
20240418150046 9 320 6.4 14.5 0.00 0.08 0.00 76 1016.4
20240418144545 8 277 6.4 14.5 0.00 0.08 0.00 78 1016.3
20240418143042 9 269 6.4 11.3 0.00 0.08 0.00 81 1016.2
20240418141539 9 263 1.6 11.3 0.00 0.08 0.00 83 1016.0
20240418140042 8 271 4.8 9.7 0.00 0.08 0.08 85 1016.0
20240418134542 8 277 4.8 11.3 0.00 0.08 0.08 86 1016.0
20240418133046 8 239 4.8 11.3 0.00 0.08 0.08 87 1015.8
20240418131538 8 254 4.8 9.7 0.00 0.08 0.08 87 1015.8
20240418130038 8 261 4.8 16.1 0.00 0.08 0.08 87 1016.2
20240418124540 8 273 8.0 16.1 0.03 0.08 0.08 87 1016.6
20240418123033 8 259 9.7 19.3 0.03 0.08 0.08 87 1015.8
20240418121533 8 257 6.4 17.7 0.03 0.08 0.08 87 1015.3
20240418120043 8 211 9.7 19.3 0.03 0.10 0.08 86 1015.4
20240418114532 8 230 6.4 19.3 0.03 0.08 0.05 85 1016.0
20240418113036 8 218 6.4 16.1 0.05 0.08 0.05 85 1015.8
20240418111538 7 277 8.0 17.7 0.05 0.08 0.05 85 1016.3
20240418110029 7 264 8.0 17.7 0.05 0.10 0.05 85 1016.2
20240418104531 8 297 4.8 12.9 0.03 0.08 0.03 84 1016.0
20240418103040 8 263 1.6 6.4 0.00 0.05 0.00 81 1015.5
20240418101524 8 173 3.2 8.0 0.00 0.05 0.00 80 1015.0
20240418100029 8 204 0.0 3.2 0.00 0.15 0.00 79 1014.9
20240418094528 8 204 0.0 4.8 0.00 0.15 0.00 81 1014.9
20240418093041 8 204 1.6 4.8 0.00 0.15 0.00 80 1014.5
20240418091535 7 226 0.0 3.2 0.00 0.15 0.00 81 1014.2
20240418090026 7 234 0.0 1.6 0.00 0.25 0.00 80 1014.2
20240418084526 8 234 0.0 0.0 0.00 0.25 0.00 80 1014.3
20240418083026 7 234 0.0 3.2 0.00 0.25 0.00 80 1014.5
20240418081530 6 257 0.0 4.8 0.00 0.25 0.00 83 1014.5
20240418080024 7 275 0.0 1.6 0.00 0.28 0.00 80 1013.9
20240418074522 7 275 0.0 3.2 0.00 0.28 0.00 84 1013.6
20240418073022 7 297 1.6 4.8 0.00 0.28 0.00 81 1013.5
20240418071522 6 113 3.2 6.4 0.00 0.28 0.00 78 1013.9
20240418070026 7 257 0.0 1.6 0.00 0.28 0.00 80 1014.2
20240418064520 6 257 0.0 4.8 0.00 0.28 0.00 82 1013.9
20240418063019 6 87 3.2 4.8 0.00 0.28 0.00 81 1013.3
20240418061518 6 115 3.2 4.8 0.00 0.28 0.00 80 1013.6
20240418060020 7 154 0.0 3.2 0.00 0.28 0.00 79 1013.5
20240418054516 7 99 0.0 4.8 0.00 0.28 0.00 78 1013.7
20240418053014 6 117 1.6 4.8 0.00 0.28 0.00 79 1013.1
20240418051511 7 270 3.2 9.7 0.00 0.28 0.00 77 1013.0
20240418050011 7 252 1.6 9.7 0.00 0.58 0.00 77 1012.9
20240418044513 8 270 4.8 11.3 0.00 0.58 0.00 75 1013.2
20240418043009 8 306 3.2 11.3 0.00 0.58 0.00 73 1012.9
20240418041509 8 289 4.8 14.5 0.00 0.58 0.00 73 1013.1
20240418040009 9 279 4.8 11.3 0.00 0.79 0.00 72 1013.0
20240418034522 9 286 4.8 11.3 0.00 0.79 0.00 71 1013.1
20240418033008 10 288 4.8 11.3 0.00 0.79 0.00 69 1013.1
20240418031507 10 284 6.4 17.7 0.00 0.79 0.00 68 1013.2
20240418030005 10 285 4.8 11.3 0.00 0.79 0.00 67 1013.0
20240418024509 10 300 4.8 14.5 0.00 0.79 0.00 67 1013.0
20240418023006 10 318 6.4 12.9 0.00 0.79 0.00 67 1012.7
20240418021506 10 284 8.0 14.5 0.00 0.79 0.00 66 1012.3
20240418020007 11 331 6.4 14.5 0.00 0.79 0.00 63 1012.1
20240418014500 11 264 6.4 14.5 0.00 0.79 0.00 63 1011.6
20240418013059 11 323 6.4 14.5 0.00 0.79 0.00 62 1011.1
20240418011557 11 355 8.0 17.7 0.00 0.79 0.00 61 1010.7
20240418010054 11 332 6.4 19.3 0.00 0.79 0.00 61 1010.5
20240418004557 11 333 6.4 24.1 0.00 0.79 0.00 61 1010.3
20240418003055 12 307 9.7 19.3 0.00 0.79 0.00 60 1009.9
20240418001547 12 275 4.8 16.1 0.00 0.79 0.00 62 1009.6
20240418000045 12 311 9.7 20.9 0.00 0.81 0.00 62 1009.3
20240417234542 12 360 12.9 27.4 0.00 0.81 0.00 61 1009.1
20240417233056 12 355 11.3 25.7 0.00 0.81 0.00 60 1009.0
20240417231539 12 310 9.7 19.3 0.00 0.81 0.00 62 1008.9
20240417230037 11 266 6.4 17.7 0.00 1.09 0.00 67 1008.7
20240417224541 11 304 8.0 16.1 0.00 1.09 0.00 67 1008.6
20240417223038 11 315 8.0 25.7 0.00 1.09 0.00 67 1008.4
20240417221536 11 317 6.4 19.3 0.00 1.09 0.00 68 1008.0
20240417220030 11 336 11.3 20.9 0.00 1.68 0.00 68 1007.5
20240417214528 11 337 8.0 20.9 0.00 1.68 0.00 70 1007.3
20240417213030 11 355 6.4 17.7 0.00 1.68 0.00 69 1006.7
20240417211525 11 349 12.9 25.7 0.00 1.68 0.00 69 1006.5
20240417210023 11 355 11.3 20.9 0.00 1.98 0.00 68 1006.3
20240417204520 11 342 12.9 32.2 0.00 1.98 0.00 68 1006.2
20240417203024 11 322 11.3 29.0 0.00 1.98 0.00 70 1005.9
20240417201518 10 340 12.9 22.5 0.00 1.98 0.00 73 1006.0
20240417200026 10 286 9.7 27.4 0.00 2.08 0.00 72 1005.7
20240417194520 10 271 11.3 33.8 0.00 2.08 0.00 73 1005.7
20240417193021 10 314 11.3 29.0 0.00 2.08 0.00 75 1005.2
20240417191523 10 323 16.1 24.1 0.00 2.08 0.00 75 1004.8
20240417190020 10 258 12.9 24.1 0.00 2.13 0.00 75 1004.2
20240417184510 10 317 8.0 22.5 0.00 2.13 0.00 75 1004.0
20240417183009 10 259 8.0 27.4 0.00 2.13 0.00 75 1003.6
20240417181507 10 313 16.1 30.6 0.00 2.13 0.00 75 1003.3